Time,TemperatureF,DewpointF,PressureIn,WindDirection,WindDirectionDegrees,WindSpeedMPH,WindSpeedGustMPH,Humidity,HourlyPrecipIn,Conditions,Clouds,dailyrainin,SolarRadiationWatts/m^2,SoftwareType,DateUTC
2013-01-07 00:03:00,69.0,68.0,-100.00,SE,142,2.0,3.0,97,0.00,,,0.00,0.000000,,2013-01-07 05:03:00,
2013-01-07 00:12:00,69.0,68.0,-100.00,SE,142,2.0,3.0,97,0.00,,,0.00,0.000000,,2013-01-07 05:12:00,
2013-01-07 00:22:00,69.0,68.0,-100.00,SE,142,2.0,3.0,97,0.00,,,0.00,0.000000,,2013-01-07 05:22:00,
2013-01-07 00:33:00,69.0,68.0,-100.00,SE,142,2.0,3.0,97,0.00,,,0.00,0.000000,,2013-01-07 05:33:00,
2013-01-07 01:02:00,70.0,69.0,-100.00,ESE,121,2.0,4.0,98,0.00,,,0.00,0.000000,,2013-01-07 06:02:00,
2013-01-07 01:12:00,70.0,69.0,-100.00,ESE,121,2.0,4.0,98,0.00,,,0.00,0.000000,,2013-01-07 06:12:00,
2013-01-07 01:22:00,70.0,69.0,-100.00,ESE,121,2.0,4.0,98,0.00,,,0.00,0.000000,,2013-01-07 06:22:00,
2013-01-07 01:32:00,70.0,69.0,-100.00,ESE,121,2.0,4.0,98,0.00,,,0.00,0.000000,,2013-01-07 06:32:00,
2013-01-07 02:02:00,71.0,70.0,-100.00,SE,135,2.0,4.0,97,0.00,,,0.00,0.000000,,2013-01-07 07:02:00,
2013-01-07 02:12:00,71.0,70.0,-100.00,SE,135,2.0,4.0,97,0.00,,,0.00,0.000000,,2013-01-07 07:12:00,
2013-01-07 02:22:00,71.0,70.0,-100.00,SE,135,2.0,4.0,97,0.00,,,0.00,0.000000,,2013-01-07 07:22:00,
2013-01-07 02:33:00,71.0,70.0,-100.00,SE,135,2.0,4.0,97,0.00,,,0.00,0.000000,,2013-01-07 07:33:00,
2013-01-07 02:53:00,70.0,69.0,-100.00,SE,125,2.0,4.0,98,0.00,,,0.00,0.000000,,2013-01-07 07:53:00,
2013-01-07 03:03:00,70.0,69.0,-100.00,SE,125,2.0,4.0,98,0.00,,,0.00,0.000000,,2013-01-07 08:03:00,
2013-01-07 03:12:00,70.0,69.0,-100.00,SE,125,2.0,4.0,98,0.00,,,0.00,0.000000,,2013-01-07 08:12:00,
2013-01-07 03:22:00,70.0,69.0,-100.00,SE,125,2.0,4.0,98,0.00,,,0.00,0.000000,,2013-01-07 08:22:00,
2013-01-07 03:33:00,70.0,69.0,-100.00,SE,125,2.0,4.0,98,0.00,,,0.00,0.000000,,2013-01-07 08:33:00,
2013-01-07 03:53:00,70.0,69.0,-100.00,ESE,111,2.0,5.0,97,0.00,,,0.00,0.000000,,2013-01-07 08:53:00,
2013-01-07 04:02:00,70.0,69.0,-100.00,ESE,111,2.0,5.0,97,0.00,,,0.00,0.000000,,2013-01-07 09:02:00,
2013-01-07 04:12:00,70.0,69.0,-100.00,ESE,111,2.0,5.0,97,0.00,,,0.00,0.000000,,2013-01-07 09:12:00,
2013-01-07 04:23:00,70.0,69.0,-100.00,ESE,111,2.0,5.0,97,0.00,,,0.00,0.000000,,2013-01-07 09:23:00,
2013-01-07 04:32:00,70.0,69.0,-100.00,ESE,111,2.0,5.0,97,0.00,,,0.00,0.000000,,2013-01-07 09:32:00,
2013-01-07 04:53:00,71.0,70.0,-100.00,SSE,154,2.0,4.0,97,0.00,,,0.00,0.000000,,2013-01-07 09:53:00,
2013-01-07 05:02:00,71.0,70.0,-100.00,SSE,154,2.0,4.0,97,0.00,,,0.00,0.000000,,2013-01-07 10:02:00,
2013-01-07 05:12:00,71.0,70.0,-100.00,SSE,154,2.0,4.0,97,0.00,,,0.00,0.000000,,2013-01-07 10:12:00,
2013-01-07 05:22:00,71.0,70.0,-100.00,SSE,154,2.0,4.0,97,0.00,,,0.00,0.000000,,2013-01-07 10:22:00,
2013-01-07 05:32:00,71.0,70.0,-100.00,SSE,154,2.0,4.0,97,0.00,,,0.00,0.000000,,2013-01-07 10:32:00,
2013-01-07 05:53:00,67.0,66.0,-100.00,South,181,0.0,4.0,97,0.00,,,0.00,0.000000,,2013-01-07 10:53:00,
2013-01-07 06:02:00,67.0,66.0,-100.00,South,181,0.0,4.0,97,0.00,,,0.00,0.000000,,2013-01-07 11:02:00,
2013-01-07 06:12:00,67.0,66.0,-100.00,South,181,0.0,4.0,97,0.00,,,0.00,0.000000,,2013-01-07 11:12:00,
2013-01-07 06:23:00,67.0,66.0,-100.00,South,181,0.0,4.0,97,0.00,,,0.00,0.000000,,2013-01-07 11:23:00,
2013-01-07 06:33:00,67.0,66.0,-100.00,South,181,0.0,4.0,97,0.00,,,0.00,0.000000,,2013-01-07 11:33:00,
2013-01-07 06:53:00,66.0,65.0,-100.00,SSW,194,0.0,4.0,98,0.00,,,0.00,0.000000,,2013-01-07 11:53:00,
2013-01-07 07:03:00,66.0,65.0,-100.00,SSW,194,0.0,4.0,98,0.00,,,0.00,0.000000,,2013-01-07 12:03:00,
2013-01-07 07:12:00,66.0,65.0,-100.00,SSW,194,0.0,4.0,98,0.00,,,0.00,0.000000,,2013-01-07 12:12:00,
2013-01-07 07:23:00,66.0,65.0,-100.00,SSW,194,0.0,4.0,98,0.00,,,0.00,0.000000,,2013-01-07 12:23:00,
2013-01-07 07:33:00,66.0,65.0,-100.00,SSW,194,0.0,4.0,98,0.00,,,0.00,0.000000,,2013-01-07 12:33:00,
2013-01-07 08:03:00,65.0,64.0,-100.00,East,97,2.0,2.0,98,0.00,,,0.00,4.000000,,2013-01-07 13:03:00,
2013-01-07 08:12:00,65.0,64.0,-100.00,East,97,2.0,2.0,98,0.00,,,0.00,4.000000,,2013-01-07 13:12:00,
2013-01-07 08:23:00,65.0,64.0,-100.00,East,97,2.0,2.0,98,0.00,,,0.00,4.000000,,2013-01-07 13:23:00,
2013-01-07 08:33:00,65.0,64.0,-100.00,East,97,2.0,2.0,98,0.00,,,0.00,4.000000,,2013-01-07 13:33:00,
2013-01-07 08:53:00,74.0,73.0,-100.00,NE,47,0.0,2.0,97,0.00,,,0.00,91.000000,,2013-01-07 13:53:00,
2013-01-07 09:03:00,74.0,73.0,-100.00,NE,47,0.0,2.0,97,0.00,,,0.00,91.000000,,2013-01-07 14:03:00,
2013-01-07 09:13:00,74.0,73.0,-100.00,NE,47,0.0,2.0,97,0.00,,,0.00,91.000000,,2013-01-07 14:13:00,
2013-01-07 09:23:00,74.0,73.0,-100.00,NE,47,0.0,2.0,97,0.00,,,0.00,91.000000,,2013-01-07 14:23:00,
2013-01-07 09:33:00,74.0,73.0,-100.00,NE,47,0.0,2.0,97,0.00,,,0.00,91.000000,,2013-01-07 14:33:00,
2013-01-07 09:53:00,80.0,71.0,-100.00,East,83,3.0,8.0,75,0.00,,,0.00,284.000000,,2013-01-07 14:53:00,
2013-01-07 10:03:00,80.0,71.0,-100.00,East,83,3.0,8.0,75,0.00,,,0.00,284.000000,,2013-01-07 15:03:00,
2013-01-07 10:12:00,80.0,71.0,-100.00,East,83,3.0,8.0,75,0.00,,,0.00,284.000000,,2013-01-07 15:12:00,
2013-01-07 10:23:00,80.0,71.0,-100.00,East,83,3.0,8.0,75,0.00,,,0.00,284.000000,,2013-01-07 15:23:00,
2013-01-07 10:33:00,80.0,71.0,-100.00,East,83,3.0,8.0,75,0.00,,,0.00,284.000000,,2013-01-07 15:33:00,
2013-01-07 10:53:00,82.0,70.0,-100.00,ESE,108,5.0,9.0,68,0.00,,,0.00,476.000000,,2013-01-07 15:53:00,
2013-01-07 11:03:00,82.0,70.0,-100.00,ESE,108,5.0,9.0,68,0.00,,,0.00,476.000000,,2013-01-07 16:03:00,
2013-01-07 11:12:00,82.0,70.0,-100.00,ESE,108,5.0,9.0,68,0.00,,,0.00,476.000000,,2013-01-07 16:12:00,
2013-01-07 11:23:00,82.0,70.0,-100.00,ESE,108,5.0,9.0,68,0.00,,,0.00,476.000000,,2013-01-07 16:23:00,
2013-01-07 11:33:00,82.0,70.0,-100.00,ESE,108,5.0,9.0,68,0.00,,,0.00,476.000000,,2013-01-07 16:33:00,
2013-01-07 12:03:00,82.0,70.0,-100.00,East,93,6.0,11.0,68,0.00,,,0.00,589.000000,,2013-01-07 17:03:00,
2013-01-07 12:12:00,82.0,70.0,-100.00,East,93,6.0,11.0,68,0.00,,,0.00,589.000000,,2013-01-07 17:12:00,
2013-01-07 12:23:00,82.0,70.0,-100.00,East,93,6.0,11.0,68,0.00,,,0.00,589.000000,,2013-01-07 17:23:00,
2013-01-07 12:33:00,82.0,70.0,-100.00,East,93,6.0,11.0,68,0.00,,,0.00,589.000000,,2013-01-07 17:33:00,
2013-01-07 12:53:00,82.0,72.0,-100.00,NE,43,6.0,10.0,73,0.00,,,0.00,671.000000,,2013-01-07 17:53:00,
2013-01-07 13:03:00,82.0,72.0,-100.00,NE,43,6.0,10.0,73,0.00,,,0.00,671.000000,,2013-01-07 18:03:00,
2013-01-07 13:13:00,82.0,72.0,-100.00,NE,43,6.0,10.0,73,0.00,,,0.00,671.000000,,2013-01-07 18:13:00,
2013-01-07 13:23:00,82.0,72.0,-100.00,NE,43,6.0,10.0,73,0.00,,,0.00,671.000000,,2013-01-07 18:23:00,
2013-01-07 13:33:00,82.0,72.0,-100.00,NE,43,6.0,10.0,73,0.00,,,0.00,671.000000,,2013-01-07 18:33:00,
2013-01-07 14:03:00,80.0,73.0,-100.00,ENE,57,6.0,13.0,79,0.00,,,0.00,514.000000,,2013-01-07 19:03:00,
2013-01-07 14:12:00,80.0,73.0,-100.00,ENE,57,6.0,13.0,79,0.00,,,0.00,514.000000,,2013-01-07 19:12:00,
2013-01-07 14:23:00,80.0,73.0,-100.00,ENE,57,6.0,13.0,79,0.00,,,0.00,514.000000,,2013-01-07 19:23:00,
2013-01-07 14:33:00,80.0,73.0,-100.00,ENE,57,6.0,13.0,79,0.00,,,0.00,514.000000,,2013-01-07 19:33:00,
2013-01-07 14:53:00,82.0,69.0,-100.00,ENE,74,7.0,12.0,64,0.00,,,0.00,487.000000,,2013-01-07 19:53:00,
2013-01-07 15:03:00,82.0,69.0,-100.00,ENE,74,7.0,12.0,64,0.00,,,0.00,487.000000,,2013-01-07 20:03:00,
2013-01-07 15:13:00,82.0,69.0,-100.00,ENE,74,7.0,12.0,64,0.00,,,0.00,487.000000,,2013-01-07 20:13:00,
2013-01-07 15:23:00,82.0,69.0,-100.00,ENE,74,7.0,12.0,64,0.00,,,0.00,487.000000,,2013-01-07 20:23:00,
2013-01-07 15:33:00,82.0,69.0,-100.00,ENE,74,7.0,12.0,64,0.00,,,0.00,487.000000,,2013-01-07 20:33:00,
2013-01-07 16:03:00,81.0,69.0,-100.00,East,93,7.0,13.0,66,0.00,,,0.00,410.000000,,2013-01-07 21:03:00,
2013-01-07 16:12:00,81.0,69.0,-100.00,East,93,7.0,13.0,66,0.00,,,0.00,410.000000,,2013-01-07 21:12:00,
2013-01-07 16:23:00,81.0,69.0,-100.00,East,93,7.0,13.0,66,0.00,,,0.00,410.000000,,2013-01-07 21:23:00,
2013-01-07 16:33:00,81.0,69.0,-100.00,East,93,7.0,13.0,66,0.00,,,0.00,410.000000,,2013-01-07 21:33:00,
2013-01-07 16:53:00,79.0,69.0,-100.00,East,84,6.0,12.0,72,0.00,,,0.00,220.000000,,2013-01-07 21:53:00,
2013-01-07 17:03:00,79.0,69.0,-100.00,East,84,6.0,12.0,72,0.00,,,0.00,220.000000,,2013-01-07 22:03:00,
2013-01-07 17:12:00,79.0,69.0,-100.00,East,84,6.0,12.0,72,0.00,,,0.00,220.000000,,2013-01-07 22:12:00,
2013-01-07 17:23:00,79.0,69.0,-100.00,East,84,6.0,12.0,72,0.00,,,0.00,220.000000,,2013-01-07 22:23:00,
2013-01-07 17:33:00,79.0,69.0,-100.00,East,84,6.0,12.0,72,0.00,,,0.00,220.000000,,2013-01-07 22:33:00,
2013-01-07 18:03:00,77.0,70.0,-100.00,East,91,7.0,12.0,78,0.00,,,0.00,91.000000,,2013-01-07 23:03:00,
2013-01-07 18:12:00,77.0,70.0,-100.00,East,91,7.0,12.0,78,0.00,,,0.00,91.000000,,2013-01-07 23:12:00,
2013-01-07 18:23:00,77.0,70.0,-100.00,East,91,7.0,12.0,78,0.00,,,0.00,91.000000,,2013-01-07 23:23:00,
2013-01-07 18:33:00,77.0,70.0,-100.00,East,91,7.0,12.0,78,0.00,,,0.00,91.000000,,2013-01-07 23:33:00,
2013-01-07 18:53:00,76.0,70.0,-100.00,East,90,5.0,12.0,81,0.00,,,0.00,3.000000,,2013-01-07 23:53:00,
2013-01-07 19:03:00,76.0,70.0,-100.00,East,90,5.0,12.0,81,0.00,,,0.00,3.000000,,2013-01-08 00:03:00,
2013-01-07 19:12:00,76.0,70.0,-100.00,East,90,5.0,12.0,81,0.00,,,0.00,3.000000,,2013-01-08 00:12:00,
2013-01-07 19:23:00,76.0,70.0,-100.00,East,90,5.0,12.0,81,0.00,,,0.00,3.000000,,2013-01-08 00:23:00,
2013-01-07 19:33:00,76.0,70.0,-100.00,East,90,5.0,12.0,81,0.00,,,0.00,3.000000,,2013-01-08 00:33:00,
2013-01-07 20:03:00,75.0,69.0,-100.00,ENE,74,6.0,11.0,82,0.00,,,0.00,0.000000,,2013-01-08 01:03:00,
2013-01-07 20:12:00,75.0,69.0,-100.00,ENE,74,6.0,11.0,82,0.00,,,0.00,0.000000,,2013-01-08 01:12:00,
2013-01-07 20:22:00,75.0,69.0,-100.00,ENE,74,6.0,11.0,82,0.00,,,0.00,0.000000,,2013-01-08 01:22:00,
2013-01-07 20:33:00,75.0,69.0,-100.00,ENE,74,6.0,11.0,82,0.00,,,0.00,0.000000,,2013-01-08 01:33:00,
2013-01-07 20:53:00,75.0,69.0,-100.00,ENE,65,7.0,15.0,82,0.00,,,0.00,0.000000,,2013-01-08 01:53:00,
2013-01-07 21:02:00,75.0,69.0,-100.00,ENE,65,7.0,15.0,82,0.00,,,0.00,0.000000,,2013-01-08 02:02:00,
2013-01-07 21:12:00,75.0,69.0,-100.00,ENE,65,7.0,15.0,82,0.00,,,0.00,0.000000,,2013-01-08 02:12:00,
2013-01-07 21:22:00,75.0,69.0,-100.00,ENE,65,7.0,15.0,82,0.00,,,0.00,0.000000,,2013-01-08 02:22:00,
2013-01-07 21:33:00,75.0,69.0,-100.00,ENE,65,7.0,15.0,82,0.00,,,0.00,0.000000,,2013-01-08 02:33:00,
2013-01-07 21:53:00,75.0,69.0,-100.00,ENE,64,7.0,14.0,82,0.00,,,0.00,0.000000,,2013-01-08 02:53:00,
2013-01-07 22:03:00,75.0,69.0,-100.00,ENE,64,7.0,14.0,82,0.00,,,0.00,0.000000,,2013-01-08 03:03:00,
2013-01-07 22:12:00,75.0,69.0,-100.00,ENE,64,7.0,14.0,82,0.00,,,0.00,0.000000,,2013-01-08 03:12:00,
2013-01-07 22:22:00,75.0,69.0,-100.00,ENE,64,7.0,14.0,82,0.00,,,0.00,0.000000,,2013-01-08 03:22:00,
2013-01-07 22:32:00,75.0,69.0,-100.00,ENE,64,7.0,14.0,82,0.00,,,0.00,0.000000,,2013-01-08 03:32:00,
2013-01-07 23:02:00,75.0,70.0,-100.00,ENE,69,10.0,15.0,84,0.00,,,0.00,0.000000,,2013-01-08 04:02:00,
2013-01-07 23:12:00,75.0,70.0,-100.00,ENE,69,10.0,15.0,84,0.00,,,0.00,0.000000,,2013-01-08 04:12:00,
2013-01-07 23:22:00,75.0,70.0,-100.00,ENE,69,10.0,15.0,84,0.00,,,0.00,0.000000,,2013-01-08 04:22:00,
2013-01-07 23:32:00,75.0,70.0,-100.00,ENE,69,10.0,15.0,84,0.00,,,0.00,0.000000,,2013-01-08 04:32:00,